Location: Cactus School
(34.5700°N, 118.0931°W)
Time: 04:49:22
(UTC-08:00)

Vanguard 3 - All Passes

Search period start: 22 November 2017 00:00
Search period end: 02 December 2017 00:00
Orbit: 509 x 3263 km, 33.3° (Epoch: 21 November)

Date Brightness Start Highest point End Pass type
(mag) Time Alt. Az. Time Alt. Az. Time Alt. Az.
22 Nov - 00:28:51 10° W 00:45:07 50° SSW 01:03:30 10° SE visible
22 Nov - 02:47:46 10° W 03:00:02 21° SW 03:11:52 10° S visible
22 Nov - 16:39:47 10° SSW 16:45:29 33° SE 16:54:43 10° E daylight
22 Nov - 18:49:16 10° WSW 18:57:37 77° SSE 19:12:53 10° E visible
22 Nov - 21:00:50 10° W 21:12:29 84° S 21:31:30 10° ESE visible
22 Nov - 23:13:42 10° W 23:28:39 63° SSW 23:48:15 10° SE visible
23 Nov - 01:29:20 10° W 01:44:22 32° SW 02:00:10 10° SSE visible
23 Nov - 15:29:16 10° SSE 15:32:33 15° SE 15:36:44 10° E daylight
23 Nov - 17:36:30 10° SW 17:43:14 59° SSE 17:55:25 10° E visible
23 Nov - 19:47:15 10° W 19:56:46 85° S 20:13:44 10° E visible
23 Nov - 21:59:18 10° W 22:12:15 74° SSW 22:31:50 10° ESE visible
24 Nov - 00:13:05 10° W 00:28:15 45° SSW 00:46:23 10° SSE visible
24 Nov - 02:32:49 10° WSW 02:43:14 17° SW 02:53:41 10° SSW visible
24 Nov - 16:24:22 10° SSW 16:29:39 36° SE 16:38:19 10° E daylight
24 Nov - 18:34:03 10° WSW 18:41:46 79° SSE 18:56:01 10° E visible
24 Nov - 20:45:27 10° W 20:56:15 82° S 21:14:32 10° ESE visible
24 Nov - 22:58:04 10° W 23:11:58 57° SSW 23:31:09 10° SE visible
25 Nov - 01:13:47 10° W 01:27:31 28° SW 01:42:36 10° S visible
25 Nov - 15:13:26 10° S 15:16:44 17° SE 15:21:02 10° E daylight
25 Nov - 17:21:18 10° WSW 17:27:29 63° SSE 17:38:45 10° E visible
25 Nov - 19:32:01 10° W 19:40:49 85° S 19:56:49 10° E visible
25 Nov - 21:43:50 10° W 21:55:51 69° SSW 22:14:45 10° ESE visible
25 Nov - 23:57:29 10° W 00:11:30 40° SSW 00:29:01 10° SSE visible
26 Nov - 02:18:44 10° WSW 02:26:33 14° SW 02:34:34 10° SSW visible
26 Nov - 16:09:03 10° SW 16:13:57 39° SSE 16:22:00 10° E daylight
26 Nov - 18:18:55 10° WSW 18:26:01 81° S 18:39:14 10° E visible
26 Nov - 20:30:08 10° W 20:40:07 78° S 20:57:31 10° ESE visible
26 Nov - 22:42:32 10° W 22:55:24 52° SSW 23:13:51 10° SE visible
27 Nov - 00:58:35 10° W 01:10:48 24° SW 01:24:39 10° S visible
27 Nov - 14:57:44 10° S 15:01:00 18° SE 15:05:19 10° E daylight
27 Nov - 17:06:08 10° WSW 17:11:52 67° SSE 17:22:11 10° E visible
27 Nov - 19:16:49 10° W 19:24:56 84° S 19:39:55 10° E visible
27 Nov - 21:28:26 10° W 21:39:31 63° SSW 21:57:33 10° SE visible
27 Nov - 23:42:05 10° W 23:54:51 35° SSW 00:11:22 10° SSE visible
28 Nov - 02:07:28 10° SW 02:10:00 10° SW 02:12:36 10° SW visible
28 Nov - 15:53:46 10° SW 15:58:21 42° SSE 16:05:47 10° E daylight
28 Nov - 18:03:48 10° W 18:10:20 83° S 18:22:31 10° E visible
28 Nov - 20:14:52 10° W 20:24:05 74° SSW 20:40:27 10° ESE visible
28 Nov - 22:27:09 10° W 22:38:57 46° SSW 22:56:22 10° SE visible
29 Nov - 00:43:47 10° WSW 00:54:12 20° SW 01:06:12 10° S visible
29 Nov - 14:42:07 10° SSW 14:45:22 21° SE 14:49:39 10° E daylight
29 Nov - 16:51:02 10° WSW 16:56:19 71° SSE 17:05:43 10° E visible
29 Nov - 19:01:40 10° W 19:09:09 82° S 19:23:03 10° ESE visible
29 Nov - 21:13:07 10° W 21:23:18 57° SSW 21:40:14 10° SE visible
29 Nov - 23:26:54 10° W 23:38:22 29° SSW 23:53:25 10° SSE night (unlit)
30 Nov - 15:38:32 10° SW 15:42:50 46° SSE 15:49:39 10° E daylight
30 Nov - 17:48:43 10° W 17:54:45 83° S 18:05:53 10° E visible
30 Nov - 19:59:39 10° W 20:08:07 68° SSW 20:23:21 10° ESE visible
30 Nov - 22:11:54 10° W 22:22:38 40° SSW 22:38:42 10° SSE visible
01 Dec - 00:29:43 10° WSW 00:37:47 15° SW 00:46:59 10° S visible
01 Dec - 14:26:35 10° SSW 14:29:49 23° SSE 14:34:01 10° E daylight
01 Dec - 16:35:57 10° WSW 16:40:51 74° S 16:49:22 10° E daylight
01 Dec - 18:46:33 10° W 18:53:26 78° S 19:06:13 10° ESE visible
01 Dec - 20:57:54 10° W 21:07:13 50° SSW 21:22:49 10° SE visible
01 Dec - 23:12:02 10° W 23:22:01 24° SSW 23:35:07 10° S night (unlit)
